SQ5DCP-1 Weather Reports


Display with metric or nautical units.
time (UTC)temp
F
wind
direction
speed
MPH
gust
MPH
rain 1hr
in
rain 24hr
in
rain mn
in
humidity
%
barometer
mb
20210922152530 55 0.0 0.0 0.00 0.12 0.10 67 1020.0
20210922152030 55 0.0 0.0 0.00 0.12 0.10 66 1020.1
20210922151530 56 0.0 0.0 0.00 0.12 0.10 66 1020.0
20210922151030 56 0.0 0.0 0.00 0.12 0.10 67 1020.1
20210922150530 56 0.0 0.0 0.00 0.12 0.10 66 1020.0
20210922150029 55 0.0 0.0 0.00 0.12 0.10 67 1020.0
20210922145529 55 0.0 0.0 0.00 0.12 0.10 69 1020.0
20210922145029 54 0.0 0.0 0.00 0.12 0.10 68 1020.0
20210922144529 54 0.0 0.0 0.00 0.12 0.10 67 1020.0
20210922144029 54 0.0 0.0 0.00 0.12 0.10 67 1020.0
20210922143529 54 0.0 0.0 0.00 0.12 0.10 67 1020.0
20210922143029 54 0.0 0.0 0.00 0.12 0.10 67 1020.0
20210922142529 54 0.0 0.0 0.00 0.12 0.10 66 1020.0
20210922142028 54 0.0 7.0 0.00 0.12 0.10 66 1020.1
20210922141528 54 293 0.0 4.0 0.00 0.12 0.10 65 1020.1
20210922141028 54 338 0.0 1.0 0.00 0.12 0.10 64 1020.1
20210922140528 55 261 0.0 3.0 0.00 0.12 0.10 64 1020.1
20210922140028 55 275 1.0 7.0 0.00 0.12 0.10 65 1020.1
20210922135528 55 265 0.0 7.0 0.00 0.12 0.10 65 1020.2
20210922135027 55 289 0.0 1.0 0.00 0.12 0.10 65 1020.2
20210922134527 54 0.0 0.0 0.00 0.12 0.10 65 1020.2
20210922134027 55 255 0.0 5.0 0.00 0.12 0.10 64 1020.2
20210922133527 55 309 1.0 3.0 0.00 0.12 0.10 65 1020.2
20210922133027 55 0.0 0.0 0.00 0.12 0.10 67 1020.2
20210922132527 55 0.0 0.0 0.00 0.12 0.10 66 1020.2
20210922132027 54 0.0 0.0 0.00 0.12 0.10 68 1020.2
20210922131526 54 225 0.0 5.0 0.00 0.12 0.10 68 1020.3
20210922131056 54 0.0 0.0 0.00 0.12 0.10 68 1020.3
20210922130526 54 0.0 0.0 0.00 0.12 0.10 66 1020.3
20210922130026 54 275 0.0 3.0 0.00 0.12 0.10 65 1020.2
20210922125526 54 312 0.0 4.0 0.00 0.12 0.10 64 1020.2
20210922125026 54 135 0.0 1.0 0.00 0.12 0.10 64 1020.2
20210922124526 54 0.0 0.0 0.00 0.12 0.10 64 1020.2
20210922124026 54 0.0 0.0 0.00 0.12 0.10 64 1020.1
20210922123526 54 315 0.0 4.0 0.00 0.12 0.10 63 1020.1
20210922123025 53 308 0.0 3.0 0.00 0.12 0.10 64 1020.2
20210922122525 53 334 0.0 3.0 0.00 0.12 0.10 64 1020.2
20210922122025 53 338 0.0 1.0 0.00 0.12 0.10 64 1020.2
20210922121525 53 289 0.0 3.0 0.00 0.12 0.10 64 1020.2
20210922121025 54 305 0.0 5.0 0.00 0.12 0.10 63 1020.2
20210922120555 54 293 0.0 1.0 0.00 0.12 0.10 63 1020.2
20210922120025 54 287 0.0 4.0 0.00 0.12 0.10 64 1020.2
20210922115524 53 0.0 0.0 0.00 0.12 0.10 65 1020.2
20210922115024 53 0.0 0.0 0.00 0.12 0.10 64 1020.2
20210922114524 53 0.0 0.0 0.00 0.12 0.10 65 1020.3
20210922114024 53 327 0.0 7.0 0.00 0.12 0.10 65 1020.3
20210922113524 53 333 0.0 4.0 0.00 0.12 0.10 64 1020.2
20210922113024 53 323 1.0 7.0 0.00 0.12 0.10 65 1020.2
20210922112523 53 318 1.0 5.0 0.00 0.12 0.10 64 1020.2
20210922112053 53 0.0 0.0 0.00 0.12 0.10 64 1020.2
20210922111553 53 318 0.0 1.0 0.00 0.12 0.10 65 1020.2
20210922111053 53 315 0.0 5.0 0.00 0.12 0.10 66 1020.3
20210922110553 53 290 0.0 8.0 0.00 0.12 0.10 67 1020.2
20210922110053 53 0.0 1.0 0.00 0.12 0.10 68 1020.3
20210922105523 53 324 0.0 4.0 0.00 0.12 0.10 67 1020.4
20210922105023 53 320 0.0 5.0 0.00 0.12 0.10 66 1020.4
20210922104522 53 0.0 0.0 0.00 0.12 0.10 66 1020.3
20210922104022 53 0.0 4.0 0.00 0.12 0.10 67 1020.3
20210922103522 52 301 0.0 4.0 0.00 0.12 0.10 67 1020.3
20210922103022 52 314 1.0 10.0 0.00 0.12 0.10 66 1020.4
20210922102522 53 0.0 0.0 0.00 0.12 0.10 66 1020.4
20210922102022 53 0.0 0.0 0.00 0.12 0.10 67 1020.3
20210922101552 52 0.0 0.0 0.00 0.12 0.10 68 1020.3
20210922101051 52 0.0 0.0 0.00 0.12 0.10 68 1020.4
20210922100551 52 0.0 0.0 0.00 0.12 0.10 68 1020.4
20210922100021 52 49 0.0 4.0 0.00 0.12 0.10 68 1020.5
20210922095521 52 0.0 0.0 0.00 0.12 0.10 68 1020.5
20210922095021 52 315 0.0 1.0 0.00 0.12 0.10 68 1020.5
20210922094521 52 315 0.0 8.0 0.00 0.12 0.10 69 1020.6
20210922094021 52 294 0.0 7.0 0.00 0.12 0.10 70 1020.6
20210922093521 52 301 0.0 7.0 0.00 0.12 0.10 71 1020.7
20210922093020 52 338 0.0 1.0 0.00 0.12 0.10 71 1020.7
20210922092520 52 338 0.0 1.0 0.00 0.12 0.10 72 1020.7
20210922092020 51 0.0 0.0 0.00 0.12 0.10 72 1020.7
20210922091550 51 0.0 0.0 0.00 0.12 0.10 71 1020.8
20210922091050 51 277 0.0 4.0 0.00 0.12 0.10 70 1020.8
20210922090520 51 293 0.0 1.0 0.00 0.12 0.10 70 1020.7
20210922090050 51 297 0.0 3.0 0.00 0.12 0.10 68 1020.8
20210922085550 51 315 0.0 3.0 0.00 0.12 0.10 68 1020.6
20210922085019 51 255 0.0 1.0 0.00 0.12 0.10 70 1020.7
20210922084519 51 0.0 0.0 0.00 0.12 0.10 72 1020.6
20210922084020 51 0.0 0.0 0.00 0.12 0.10 72 1020.7
20210922083519 51 0.0 0.0 0.00 0.12 0.10 73 1020.7
20210922083019 51 0.0 0.0 0.00 0.12 0.10 75 1020.7
20210922082549 50 289 0.0 5.0 0.00 0.12 0.10 75 1020.8
20210922082049 50 284 0.0 3.0 0.00 0.12 0.10 74 1020.8
20210922081549 50 308 0.0 1.0 0.00 0.12 0.10 75 1020.8
20210922081048 50 324 0.0 3.0 0.00 0.12 0.10 75 1020.8
20210922080548 50 0.0 0.0 0.00 0.12 0.10 78 1020.7
20210922080018 50 270 0.0 7.0 0.00 0.12 0.10 77 1020.6
20210922075548 49 0.0 0.0 0.00 0.12 0.10 77 1020.6
20210922075048 49 304 0.0 1.0 0.00 0.12 0.10 78 1020.6
20210922074548 49 309 0.0 3.0 0.00 0.12 0.10 78 1020.6
20210922074017 49 287 0.0 4.0 0.00 0.12 0.10 78 1020.6
20210922073517 49 0.0 0.0 0.00 0.12 0.10 77 1020.6
20210922073017 49 307 0.0 4.0 0.00 0.12 0.10 77 1020.7
20210922072547 48 299 0.0 1.0 0.00 0.12 0.10 77 1020.6
20210922072047 48 303 0.0 5.0 0.00 0.12 0.10 76 1020.5
20210922071547 48 0.0 0.0 0.00 0.12 0.10 75 1020.5
20210922071047 48 0.0 0.0 0.00 0.12 0.10 75 1020.4
20210922070547 47 90 0.0 1.0 0.00 0.12 0.10 74 1020.4
20210922070047 47 311 0.0 1.0 0.00 0.12 0.10 74 1020.5
20210922065546 47 338 0.0 1.0 0.00 0.12 0.10 73 1020.5
20210922065046 47 0.0 4.0 0.00 0.12 0.10 72 1020.4
20210922064546 47 315 0.0 1.0 0.00 0.12 0.10 72 1020.4
20210922064016 47 338 0.0 1.0 0.00 0.12 0.10 72 1020.4
20210922063516 47 0.0 0.0 0.00 0.12 0.10 71 1020.3
20210922063046 47 0.0 0.0 0.00 0.12 0.10 71 1020.3
20210922062545 46 293 0.0 1.0 0.00 0.12 0.10 71 1020.3
20210922062045 46 0.0 0.0 0.00 0.12 0.10 71 1020.3
20210922061545 46 0.0 0.0 0.00 0.12 0.10 72 1020.3
20210922061045 46 0.0 0.0 0.00 0.12 0.10 72 1020.3
20210922060545 46 0.0 0.0 0.00 0.12 0.10 72 1020.2
20210922060045 46 0.0 0.0 0.00 0.12 0.10 72 1020.2
20210922055545 46 0.0 0.0 0.00 0.12 0.10 72 1020.2
20210922055045 46 0.0 0.0 0.00 0.12 0.10 72 1020.2
20210922054544 46 0.0 0.0 0.00 0.12 0.10 72 1020.2
20210922054044 46 0.0 0.0 0.00 0.12 0.10 72 1020.1
20210922053544 46 0.0 0.0 0.00 0.12 0.10 72 1020.0
20210922053114 46 0.0 0.0 0.00 0.12 0.10 72 1020.0
20210922052544 46 0.0 0.0 0.00 0.12 0.10 72 1019.9
20210922052044 46 0.0 0.0 0.00 0.12 0.10 72 1020.0
20210922051543 46 0.0 0.0 0.00 0.12 0.10 73 1019.9
20210922051043 46 0.0 0.0 0.00 0.12 0.10 73 1019.9
20210922050543 46 0.0 0.0 0.00 0.12 0.10 73 1019.8
20210922050113 46 0.0 0.0 0.00 0.12 0.10 73 1019.8
20210922045543 46 0.0 0.0 0.00 0.12 0.10 73 1019.8
20210922045043 46 0.0 0.0 0.00 0.12 0.10 73 1019.8
20210922044543 46 0.0 0.0 0.00 0.12 0.10 73 1019.8
20210922044043 46 0.0 0.0 0.00 0.12 0.10 74 1019.8
20210922043542 46 0.0 0.0 0.00 0.12 0.10 74 1019.7
20210922043042 46 0.0 0.0 0.00 0.12 0.10 74 1019.7
20210922042542 46 0.0 0.0 0.00 0.12 0.10 74 1019.8
20210922042042 46 0.0 0.0 0.00 0.12 0.10 74 1019.7
20210922041542 46 0.0 0.0 0.00 0.12 0.10 75 1019.7
20210922041042 46 0.0 0.0 0.00 0.12 0.10 75 1019.7
20210922040612 46 0.0 0.0 0.00 0.12 0.10 75 1019.7
20210922040142 46 0.0 0.0 0.00 0.12 0.10 75 1019.6
20210922035541 46 0.0 0.0 0.00 0.12 0.10 75 1019.6
20210922035041 46 0.0 0.0 0.00 0.12 0.10 75 1019.6
20210922034541 46 0.0 0.0 0.00 0.12 0.10 75 1019.6
20210922034041 46 0.0 0.0 0.00 0.12 0.10 76 1019.6
20210922033541 45 0.0 0.0 0.00 0.12 0.10 75 1019.7
20210922033041 45 0.0 0.0 0.00 0.12 0.10 75 1019.6
20210922032541 45 0.0 0.0 0.00 0.12 0.10 75 1019.6
20210922032041 45 0.0 0.0 0.00 0.12 0.10 75 1019.6
20210922031540 45 0.0 0.0 0.00 0.12 0.10 75 1019.6
20210922031040 46 0.0 0.0 0.00 0.12 0.10 76 1019.6
20210922030540 46 0.0 0.0 0.00 0.12 0.10 76 1019.6
20210922030040 46 0.0 0.0 0.00 0.12 0.10 77 1019.6
20210922025540 46 0.0 0.0 0.01 0.12 0.10 77 1019.6
20210922025040 46 0.0 0.0 0.01 0.12 0.10 77 1019.6
20210922024540 46 0.0 0.0 0.01 0.12 0.10 77 1019.6
20210922024040 46 0.0 0.0 0.01 0.12 0.10 77 1019.6
20210922023539 46 0.0 0.0 0.01 0.12 0.10 77 1019.6
20210922023039 46 0.0 0.0 0.02 0.12 0.10 77 1019.6
20210922022539 46 0.0 0.0 0.02 0.12 0.10 77 1019.6
20210922022039 46 0.0 0.0 0.02 0.12 0.10 77 1019.6
20210922021609 46 0.0 0.0 0.02 0.12 0.10 77 1019.7
20210922021039 46 0.0 0.0 0.02 0.12 0.10 77 1019.7
20210922020539 46 0.0 0.0 0.03 0.12 0.10 78 1019.7
20210922020039 46 0.0 0.0 0.03 0.12 0.10 78 1019.8
20210922015539 46 0.0 0.0 0.03 0.11 0.09 78 1019.9
20210922015038 46 0.0 0.0 0.03 0.11 0.09 78 1019.9
20210922014538 46 0.0 0.0 0.04 0.11 0.09 78 1019.9
20210922014038 46 0.0 0.0 0.04 0.11 0.09 77 1019.9
20210922013608 46 0.0 0.0 0.05 0.11 0.09 77 1019.9
20210922013038 46 0.0 0.0 0.05 0.10 0.08 77 1020.0
20210922012538 46 0.0 0.0 0.05 0.10 0.08 77 1019.9
20210922012038 46 0.0 0.0 0.06 0.10 0.08 77 1020.0
20210922011537 46 0.0 0.0 0.06 0.10 0.08 78 1020.1
20210922011037 46 0.0 0.0 0.06 0.10 0.08 78 1020.1
20210922010537 46 0.0 0.0 0.05 0.09 0.07 78 1020.1
20210922010037 46 0.0 0.0 0.06 0.09 0.07 78 1020.2
20210922005537 46 0.0 0.0 0.05 0.08 0.06 78 1020.1
20210922005037 46 0.0 0.0 0.05 0.08 0.06 79 1020.2
20210922004536 46 0.0 0.0 0.04 0.07 0.05 79 1020.2
20210922004036 47 0.0 0.0 0.05 0.07 0.05 79 1020.2
20210922003536 47 0.0 0.0 0.04 0.06 0.04 79 1020.3
20210922003036 47 0.0 0.0 0.03 0.05 0.03 79 1020.3
20210922002536 47 0.0 0.0 0.03 0.05 0.03 79 1020.3
20210922002036 47 0.0 0.0 0.02 0.04 0.02 79 1020.3
20210922001536 47 0.0 0.0 0.02 0.04 0.02 79 1020.3
20210922001036 47 0.0 0.0 0.02 0.04 0.02 79 1020.4
20210922000535 47 0.0 0.0 0.02 0.04 0.02 79 1020.4
20210922000035 47 0.0 0.0 0.01 0.03 0.01 79 1020.5
20210921235535 47 0.0 0.0 0.01 0.03 0.01 79 1020.5
20210921235035 47 0.0 0.0 0.01 0.03 0.01 79 1020.5
20210921234535 47 0.0 0.0 0.01 0.03 0.01 79 1020.5
20210921234035 47 0.0 0.0 0.00 0.02 0.00 79 1020.5
20210921233535 47 0.0 0.0 0.00 0.02 0.00 80 1020.5
20210921233035 47 0.0 0.0 0.00 0.02 0.00 80 1020.6
20210921232534 47 0.0 0.0 0.00 0.02 0.00 80 1020.6
20210921232034 47 0.0 0.0 0.00 0.02 0.00 80 1020.7
20210921231534 47 0.0 0.0 0.00 0.02 0.00 80 1020.7
20210921231034 47 0.0 0.0 0.00 0.02 0.00 80 1020.7
20210921230534 47 0.0 0.0 0.00 0.02 0.00 80 1020.8
20210921230034 47 0.0 0.0 0.00 0.02 0.00 80 1020.8
20210921225534 47 0.0 0.0 0.00 0.02 0.00 80 1020.9
20210921225033 47 0.0 0.0 0.01 0.02 0.00 80 1020.9
20210921224533 47 0.0 0.0 0.01 0.02 0.00 80 1021.0
20210921224033 47 0.0 0.0 0.01 0.02 0.00 80 1021.0
20210921223533 47 0.0 0.0 0.02 0.02 0.00 80 1021.1
20210921223033 47 0.0 0.0 0.02 0.02 0.00 80 1021.2
20210921222603 47 0.0 0.0 0.02 0.02 0.00 80 1021.2
20210921222033 47 0.0 0.0 0.02 0.02 0.00 80 1021.2
20210921221533 47 0.0 0.0 0.02 0.02 0.00 80 1021.3
20210921221032 47 0.0 0.0 0.02 0.02 0.00 80 1021.3
20210921220532 47 0.0 0.0 0.02 0.02 0.00 80 1021.3
20210921220032 47 0.0 0.0 0.02 0.02 0.00 80 1021.4
20210921215532 48 248 0.0 1.0 0.02 0.02 0.02 80 1021.5
20210921215032 48 278 0.0 3.0 0.01 0.01 0.01 80 1021.5
20210921214532 48 284 0.0 4.0 0.01 0.01 0.01 80 1021.6
20210921214031 48 0.0 0.0 0.01 0.01 0.01 80 1021.6
20210921213601 48 0.0 0.0 0.00 0.00 0.00 80 1021.6
20210921213031 48 0.0 0.0 0.00 0.00 0.00 79 1021.6
20210921212531 49 0.0 0.0 0.00 0.00 0.00 79 1021.7
20210921212031 49 0.0 0.0 0.00 0.00 0.00 79 1021.7
20210921211531 49 0.0 0.0 0.00 0.00 0.00 79 1021.7
20210921211031 49 270 0.0 5.0 0.00 0.00 0.00 79 1021.7
20210921210530 49 293 0.0 1.0 0.00 0.00 0.00 79 1021.7
20210921210030 49 285 0.0 1.0 0.00 0.00 0.00 78 1021.7
20210921205530 49 285 0.0 3.0 0.00 0.00 0.00 78 1021.7
20210921205030 49 304 0.0 1.0 0.00 0.00 0.00 78 1021.8
20210921204530 49 0.0 0.0 0.00 0.00 0.00 78 1021.8
20210921204030 49 0.0 0.0 0.00 0.00 0.00 78 1021.8
20210921203530 49 0.0 0.0 0.00 0.00 0.00 78 1021.8
20210921203030 49 0.0 0.0 0.00 0.00 0.00 78 1021.7
20210921202529 49 0.0 0.0 0.00 0.00 0.00 78 1021.8
20210921202029 49 0.0 0.0 0.00 0.00 0.00 78 1021.7
20210921201529 49 0.0 0.0 0.00 0.00 0.00 78 1021.7
20210921201029 49 0.0 0.0 0.00 0.00 0.00 78 1021.7
20210921200529 49 0.0 0.0 0.00 0.00 0.00 78 1021.8
20210921200029 49 0.0 0.0 0.00 0.00 0.00 77 1021.8
20210921195529 49 0.0 0.0 0.00 0.00 0.00 77 1021.7
20210921195029 49 0.0 0.0 0.00 0.00 0.00 77 1021.7
20210921194528 49 0.0 0.0 0.00 0.00 0.00 77 1021.7
20210921194028 49 0.0 0.0 0.00 0.00 0.00 77 1021.7
20210921193528 49 0.0 0.0 0.00 0.00 0.00 77 1021.7
20210921193028 49 0.0 0.0 0.00 0.00 0.00 77 1021.7
20210921192528 49 0.0 0.0 0.00 0.00 0.00 77 1021.6
20210921192058 49 0.0 0.0 0.00 0.00 0.00 77 1021.7
20210921191528 49 0.0 0.0 0.00 0.00 0.00 78 1021.7
20210921191028 49 0.0 0.0 0.00 0.00 0.00 77 1021.8
20210921190527 49 0.0 0.0 0.00 0.00 0.00 77 1021.8
20210921190027 49 0.0 0.0 0.00 0.00 0.00 77 1021.8
20210921185527 49 0.0 0.0 0.00 0.00 0.00 77 1021.8
20210921185027 49 0.0 0.0 0.00 0.00 0.00 77 1021.8
20210921184557 49 0.0 0.0 0.00 0.00 0.00 77 1021.8
20210921184027 49 0.0 0.0 0.00 0.00 0.00 77 1021.8
20210921183527 49 0.0 0.0 0.00 0.00 0.00 77 1021.8
20210921183057 49 0.0 0.0 0.00 0.00 0.00 76 1021.8
20210921182626 49 0.0 0.0 0.00 0.00 0.00 76 1021.9
20210921182026 49 0.0 0.0 0.00 0.00 0.00 76 1021.8
20210921181526 49 0.0 0.0 0.00 0.00 0.00 76 1021.9
20210921181026 49 0.0 0.0 0.00 0.00 0.00 76 1021.9
20210921180526 49 0.0 0.0 0.00 0.00 0.00 75 1021.9
20210921180026 49 0.0 0.0 0.00 0.00 0.00 75 1021.9
20210921175525 50 0.0 0.0 0.00 0.00 0.00 75 1021.9
20210921175025 50 0.0 0.0 0.00 0.00 0.00 75 1021.9
20210921174525 50 0.0 0.0 0.00 0.00 0.00 75 1022.0
20210921174055 50 0.0 0.0 0.00 0.00 0.00 75 1021.9
20210921173525 50 0.0 0.0 0.00 0.00 0.00 75 1022.0
20210921173025 50 0.0 0.0 0.00 0.00 0.00 74 1022.0
20210921172555 50 0.0 0.0 0.00 0.00 0.00 74 1022.0
20210921172025 50 0.0 0.0 0.00 0.00 0.00 74 1022.0
20210921171525 50 0.0 0.0 0.00 0.00 0.00 74 1022.0
20210921171025 50 0.0 0.0 0.00 0.00 0.00 73 1022.0
20210921170524 50 0.0 0.0 0.00 0.00 0.00 73 1022.0
20210921170054 51 0.0 0.0 0.00 0.00 0.00 73 1022.1
20210921165524 51 0.0 0.0 0.00 0.00 0.00 72 1022.1
20210921165054 51 0.0 0.0 0.00 0.00 0.00 72 1022.1
20210921164554 51 0.0 0.0 0.00 0.00 0.00 72 1022.1
20210921164054 51 0.0 0.0 0.00 0.00 0.00 71 1022.2
20210921163554 51 0.0 0.0 0.00 0.00 0.00 71 1022.1
20210921163023 51 0.0 0.0 0.00 0.00 0.00 71 1022.2
20210921162523 51 0.0 0.0 0.00 0.00 0.00 70 1022.2
20210921162023 52 0.0 0.0 0.00 0.00 0.00 70 1022.2
20210921161523 52 0.0 0.0 0.00 0.00 0.00 70 1022.2
20210921161023 52 0.0 0.0 0.00 0.00 0.00 69 1022.2
20210921160523 52 0.0 0.0 0.00 0.00 0.00 70 1022.1
20210921160246 52 0.0 0.0 0.00 0.00 0.00 70 1022.2
20210921155522 52 0.0 0.0 0.00 0.00 0.00 69 1022.2
20210921155052 52 0.0 0.0 0.00 0.00 0.00 69 1022.2
20210921154552 52 0.0 0.0 0.00 0.00 0.00 69 1022.1
20210921154052 53 0.0 0.0 0.00 0.00 0.00 68 1022.1
20210921153552 53 0.0 0.0 0.00 0.00 0.00 68 1022.1
20210921153022 53 0.0 0.0 0.00 0.00 0.00 67 1022.1